When you browse on this site, cookies collect data to enhance your experience and personalize the content and advertising you see.
Visit our Privacy Policy to learn more. By continuing to use the site, you agree to this use of cookies and data.
  • In Spain
  • List of Countries
  • For 7 days
  • Water Temperature
  • Satellite Maps
  • Weather Map
  • Weather Widgets
  • user-avatar
    Login

    Hourly Weather Chervonyi Brid

    Today, 19 May, Sunday

    Time Temperature Precipitation Wind Pressure Humidity
    00:00 +18°C° 0.6 mm 4 mps 744 mmHg 90%
    01:00 +18°C° 0.6 mm 4 mps 744 mmHg 90%
    02:00 +17°C° 0 mm 4 mps 744 mmHg 90%
    03:00 +17°C° 0 mm 4 mps 744 mmHg 90%
    04:00 +15°C° 0 mm 4 mps 744 mmHg 89%
    05:00 +15°C° 0 mm 4 mps 744 mmHg 89%
    06:00 +16°C° 0 mm 5 mps 745 mmHg 84%
    07:00 +19°C° 0 mm 5 mps 745 mmHg 78%
    08:00 +20°C° 0 mm 5 mps 745 mmHg 73%
    09:00 +22°C° 0 mm 5 mps 745 mmHg 69%
    10:00 +23°C° 0 mm 6 mps 745 mmHg 64%
    11:00 +24°C° 0 mm 6 mps 746 mmHg 59%
    12:00 +26°C° 0 mm 6 mps 745 mmHg 58%
    13:00 +27°C° 0 mm 6 mps 745 mmHg 56%
    14:00 +27°C° 0 mm 6 mps 745 mmHg 54%
    15:00 +27°C° 0 mm 6 mps 745 mmHg 56%
    16:00 +27°C° 0 mm 5 mps 745 mmHg 58%
    17:00 +26°C° 0 mm 5 mps 745 mmHg 60%
    18:00 +25°C° 0 mm 5 mps 746 mmHg 64%
    19:00 +22°C° 0 mm 5 mps 746 mmHg 68%
    20:00 +20°C° 0 mm 4 mps 746 mmHg 72%
    21:00 +20°C° 0 mm 5 mps 746 mmHg 72%
    22:00 +19°C° 0 mm 5 mps 746 mmHg 71%
    23:00 +17°C° 0 mm 5 mps 746 mmHg 70%

    Tomorrow, 20 May, Monday

    Time Temperature Precipitation Wind Pressure Humidity
    00:00 +17°C° 0 mm 5 mps 747 mmHg 70%
    01:00 +17°C° 0 mm 5 mps 747 mmHg 70%
    02:00 +17°C° 0 mm 4 mps 747 mmHg 70%
    03:00 +17°C° 0 mm 4 mps 747 mmHg 73%
    04:00 +15°C° 0 mm 4 mps 747 mmHg 75%
    05:00 +15°C° 0 mm 4 mps 747 mmHg 78%
    06:00 +16°C° 0 mm 5 mps 747 mmHg 75%
    07:00 +19°C° 0 mm 5 mps 748 mmHg 72%
    08:00 +21°C° 0 mm 6 mps 748 mmHg 68%
    09:00 +22°C° 0 mm 7 mps 748 mmHg 66%
    10:00 +23°C° 0 mm 7 mps 748 mmHg 63%
    11:00 +26°C° 0 mm 8 mps 748 mmHg 61%
    12:00 +26°C° 0.1 mm 7 mps 748 mmHg 62%
    13:00 +26°C° 0.1 mm 7 mps 748 mmHg 63%
    14:00 +26°C° 0.1 mm 7 mps 748 mmHg 64%
    15:00 +26°C° 0.7 mm 7 mps 747 mmHg 66%
    16:00 +24°C° 0.7 mm 6 mps 747 mmHg 68%
    17:00 +24°C° 0.7 mm 6 mps 747 mmHg 71%
    18:00 +23°C° 0.4 mm 5 mps 747 mmHg 75%
    19:00 +21°C° 0.4 mm 5 mps 747 mmHg 79%
    20:00 +20°C° 0.4 mm 4 mps 747 mmHg 83%
    21:00 +20°C° 0 mm 4 mps 747 mmHg 84%
    22:00 +19°C° 0 mm 5 mps 747 mmHg 84%
    23:00 +19°C° 0 mm 5 mps 748 mmHg 85%

    Day after tomorrow, 21 May, Tuesday

    Time Temperature Precipitation Wind Pressure Humidity
    00:00 +17°C° 0 mm 5 mps 748 mmHg 85%
    01:00 +17°C° 0 mm 5 mps 748 mmHg 86%
    02:00 +16°C° 0 mm 5 mps 747 mmHg 87%
    03:00 +16°C° 0 mm 5 mps 747 mmHg 86%
    04:00 +16°C° 0 mm 5 mps 747 mmHg 86%
    05:00 +16°C° 0 mm 5 mps 747 mmHg 85%
    06:00 +17°C° 0 mm 6 mps 747 mmHg 82%
    07:00 +18°C° 0 mm 7 mps 747 mmHg 79%
    08:00 +21°C° 0 mm 8 mps 747 mmHg 76%
    09:00 +22°C° 0 mm 8 mps 747 mmHg 73%
    10:00 +22°C° 0 mm 8 mps 747 mmHg 71%
    11:00 +23°C° 0 mm 8 mps 747 mmHg 68%
    12:00 +24°C° 0.8 mm 8 mps 746 mmHg 67%
    13:00 +24°C° 0.8 mm 9 mps 746 mmHg 66%
    14:00 +24°C° 0.8 mm 9 mps 746 mmHg 65%
    15:00 +24°C° 0.7 mm 8 mps 746 mmHg 67%
    16:00 +23°C° 0.7 mm 7 mps 745 mmHg 69%
    17:00 +23°C° 0.7 mm 6 mps 745 mmHg 71%
    18:00 +21°C° 0 mm 5 mps 745 mmHg 74%
    19:00 +20°C° 0 mm 4 mps 745 mmHg 78%
    20:00 +19°C° 0 mm 4 mps 745 mmHg 81%
    21:00 +18°C° 0.1 mm 4 mps 745 mmHg 84%
    22:00 +17°C° 0.1 mm 4 mps 745 mmHg 87%
    23:00 +15°C° 0.1 mm 4 mps 746 mmHg 90%

    22 May, Wednesday

    Time Temperature Precipitation Wind Pressure Humidity
    00:00 +15°C° 0.1 mm 4 mps 745 mmHg 90%
    01:00 +15°C° 0.1 mm 4 mps 745 mmHg 90%
    02:00 +15°C° 0.1 mm 4 mps 745 mmHg 90%
    03:00 +16°C° 0.7 mm 3 mps 745 mmHg 90%
    04:00 +16°C° 0.7 mm 3 mps 745 mmHg 90%
    05:00 +16°C° 0.7 mm 2 mps 744 mmHg 90%
    06:00 +17°C° 0.1 mm 3 mps 745 mmHg 85%
    07:00 +18°C° 0.1 mm 3 mps 745 mmHg 81%
    08:00 +19°C° 0.1 mm 4 mps 745 mmHg 77%
    09:00 +20°C° 1.1 mm 4 mps 744 mmHg 74%
    10:00 +20°C° 1.1 mm 4 mps 744 mmHg 72%
    11:00 +21°C° 1.1 mm 3 mps 744 mmHg 69%
    12:00 +21°C° 0.7 mm 3 mps 744 mmHg 69%
    13:00 +21°C° 0.7 mm 2 mps 743 mmHg 69%
    14:00 +22°C° 0.7 mm 1 mps 743 mmHg 69%
    15:00 +21°C° 0.1 mm 2 mps 743 mmHg 71%
    16:00 +21°C° 0.1 mm 2 mps 743 mmHg 73%
    17:00 +21°C° 0.1 mm 2 mps 742 mmHg 75%
    18:00 +19°C° 0.4 mm 2 mps 742 mmHg 79%
    19:00 +19°C° 0.4 mm 1 mps 742 mmHg 83%
    20:00 +18°C° 0.4 mm 1 mps 742 mmHg 88%
    21:00 +17°C° 0.8 mm 2 mps 742 mmHg 89%
    22:00 +16°C° 0.8 mm 2 mps 742 mmHg 90%
    23:00 +16°C° 0.8 mm 2 mps 742 mmHg 91%

    23 May, Thursday

    Time Temperature Precipitation Wind Pressure Humidity
    00:00 +15°C° 0 mm 2 mps 742 mmHg 91%
    01:00 +14°C° 0 mm 3 mps 742 mmHg 92%
    02:00 +13°C° 0 mm 3 mps 742 mmHg 92%
    03:00 +13°C° 0 mm 3 mps 742 mmHg 92%
    04:00 +13°C° 0 mm 3 mps 742 mmHg 92%
    05:00 +13°C° 0 mm 3 mps 742 mmHg 92%
    06:00 +16°C° 0 mm 3 mps 742 mmHg 87%
    07:00 +17°C° 0 mm 3 mps 742 mmHg 82%
    08:00 +19°C° 0 mm 3 mps 742 mmHg 77%
    09:00 +20°C° 0.3 mm 4 mps 742 mmHg 72%
    10:00 +21°C° 0.3 mm 4 mps 742 mmHg 67%
    11:00 +22°C° 0.3 mm 5 mps 742 mmHg 61%
    12:00 +22°C° 0.4 mm 5 mps 742 mmHg 61%
    13:00 +23°C° 0.4 mm 5 mps 742 mmHg 61%
    14:00 +23°C° 0.4 mm 5 mps 742 mmHg 61%
    15:00 +22°C° 0.5 mm 5 mps 742 mmHg 64%
    16:00 +22°C° 0.5 mm 5 mps 741 mmHg 67%
    17:00 +21°C° 0.5 mm 4 mps 741 mmHg 69%
    18:00 +20°C° 0.1 mm 4 mps 741 mmHg 76%
    19:00 +18°C° 0.1 mm 3 mps 742 mmHg 82%
    20:00 +17°C° 0.1 mm 3 mps 742 mmHg 89%
    21:00 +16°C° 0 mm 3 mps 742 mmHg 90%
    22:00 +16°C° 0 mm 3 mps 742 mmHg 92%
    23:00 +14°C° 0 mm 3 mps 742 mmHg 94%

    24 May, Friday

    Time Temperature Precipitation Wind Pressure Humidity
    00:00 +14°C° 0 mm 3 mps 742 mmHg 94%
    01:00 +13°C° 0 mm 3 mps 742 mmHg 95%
    02:00 +13°C° 0 mm 4 mps 742 mmHg 95%
    03:00 +12°C° 0 mm 4 mps 742 mmHg 96%
    04:00 +12°C° 0 mm 4 mps 742 mmHg 96%
    05:00 +12°C° 0 mm 4 mps 742 mmHg 96%
    06:00 +13°C° 0 mm 4 mps 742 mmHg 93%
    07:00 +13°C° 0 mm 4 mps 742 mmHg 90%
    08:00 +14°C° 0 mm 4 mps 742 mmHg 86%
    09:00 +15°C° 0 mm 4 mps 743 mmHg 85%
    10:00 +15°C° 0 mm 4 mps 743 mmHg 85%
    11:00 +15°C° 0 mm 4 mps 743 mmHg 84%
    12:00 +17°C° 0 mm 4 mps 743 mmHg 79%
    13:00 +18°C° 0 mm 4 mps 743 mmHg 75%
    14:00 +19°C° 0 mm 4 mps 743 mmHg 71%
    15:00 +19°C° 0.1 mm 4 mps 743 mmHg 72%
    16:00 +18°C° 0.1 mm 4 mps 742 mmHg 74%
    17:00 +18°C° 0.1 mm 4 mps 742 mmHg 75%
    18:00 +17°C° 0 mm 4 mps 742 mmHg 79%
    19:00 +16°C° 0 mm 3 mps 742 mmHg 83%
    20:00 +14°C° 0 mm 2 mps 742 mmHg 86%
    21:00 +14°C° 0 mm 2 mps 742 mmHg 88%
    22:00 +13°C° 0 mm 2 mps 742 mmHg 90%
    23:00 +12°C° 0 mm 1 mps 742 mmHg 91%
    Show more